This is the latest recevied weather packets stored in our database for station/object N5YHM-13. If no packets are shown the sender has not sent any weather packets the latest 10 day(s).
| Time | Temp. | Humidity | Pressure | Rain* | Wind** | Luminosity | Snow |
|---|---|---|---|---|---|---|---|
| 1777406262 | 30° C | 68% | 1017.6 hPa | 0 mm | - | 30 W/m² | - |
| 1777405961 | 30° C | 70% | 1017.7 hPa | 0 mm | - | 33 W/m² | - |
| 1777405658 | 29.44° C | 71% | 1017.9 hPa | 0 mm | - | 26 W/m² | - |
| 1777405355 | 30° C | 71% | 1018.1 hPa | 0 mm | - | 27 W/m² | - |
| 1777405051 | 30° C | 71% | 1018.1 hPa | 0 mm | - | 30 W/m² | - |
| 1777404751 | 29.44° C | 71% | 1018.1 hPa | 0 mm | - | 30 W/m² | - |
| 1777404447 | 29.44° C | 71% | 1018.2 hPa | 0 mm | - | 33 W/m² | - |
| 1777404143 | 29.44° C | 73% | 1018.1 hPa | 0 mm | - | 27 W/m² | - |
| 1777403840 | 29.44° C | 73% | 1018.2 hPa | 0 mm | - | 26 W/m² | - |
| 1777403535 | 29.44° C | 72% | 1018.4 hPa | 0 mm | - | 35 W/m² | - |
| 1777403229 | 29.44° C | 73% | 1018.4 hPa | 0 mm | - | 31 W/m² | - |
| 1777402924 | 29.44° C | 72% | 1018.4 hPa | 0 mm | - | 29 W/m² | - |
| 1777402620 | 28.89° C | 74% | 1018.6 hPa | 0 mm | - | 34 W/m² | - |
| 1777402318 | 28.89° C | 74% | 1018.8 hPa | 0 mm | - | 37 W/m² | - |
| 1777402017 | 30° C | 72% | 1018.9 hPa | 0 mm | - | 46 W/m² | - |
| 1777401716 | 30° C | 70% | 1019.1 hPa | 0 mm | - | 41 W/m² | - |
| 1777401413 | 29.44° C | 72% | 1019.1 hPa | 0 mm | - | 31 W/m² | - |
| 1777401109 | 29.44° C | 73% | 1019.1 hPa | 0 mm | - | 27 W/m² | - |
| 1777400804 | 29.44° C | 71% | 1019.2 hPa | 0 mm | - | 38 W/m² | - |
| 1777400501 | 29.44° C | 71% | 1019.4 hPa | 0 mm | - | 56 W/m² | - |
| 1777400198 | 28.89° C | 73% | 1019.5 hPa | 0 mm | - | 46 W/m² | - |
| 1777399894 | 29.44° C | 72% | 1019.4 hPa | 0 mm | - | 48 W/m² | - |
| 1777399592 | 29.44° C | 70% | 1019.6 hPa | 0 mm | - | 38 W/m² | - |
| 1777399288 | 29.44° C | 71% | 1019.7 hPa | 0 mm | - | 37 W/m² | - |
| 1777398987 | 29.44° C | 71% | 1019.5 hPa | 0 mm | - | 27 W/m² | - |
* Rain latest hour (hover to see other rain measurements)
** Current wind speed in m/s (hover to see current wind gust speed)